軌道要素
Epoch 1996 Mar. 18.0 TT = JDT 2450160.5
T 1996 Mar. 5.72766 TT MPC
q 1.7196458 (2000.0) P Q
n 0.15416717 Peri. 115.21843 +0.56196190 +0.82712677
a 3.4446210 Node 188.98523 -0.77565465 +0.52368828
e 0.5007736 Incl. 2.84587 -0.28733027 +0.20398992
P 6.39
From 594 observations 1995 May 23-2009 Nov. 24, mean residual 0".9.
Nongravitational parameters A1 = +1.48, A2 = +0.0025.
|